ECMWFFLT1_prec_cthk_057.txt.gz
RH
48 49 56 61 59 59 62 59 53 52 50 47 46 42 37 34 32 32 34 35 33 28 25 24 24 24 25 25 25 25 24 23 22 21 21 21 23 27 29 28 27 25 27 30 28 28 33 36 41 45 41 36 36 37 38 37 36 38 38 36 35 34 34
44 48 57 61 55 52 55 56 55 53 51 49 48 45 41 37 33 31 33 34 32 28 25 23 23 23 24 25 25 25 25 24 24 23 23 23 23 25 27 28 28 25 24 28 30 30 32 34 35 39 38 34 34 36 36 36 35 36 39 38 36 35 32
40 45 54 55 50 50 53 55 54 52 53 51 49 47 44 41 37 33 32 33 32 30 26 24 23 22 23 24 25 25 25 25 25 25 25 25 23 23 26 26 26 26 23 24 29 31 32 34 32 32 32 32 34 36 35 36 37 36 38 39 39 39 36
37 40 48 49 48 51 54 54 51 50 53 52 50 49 48 45 42 37 34 33 31 30 27 23 22 23 23 24 25 25 25 25 25 26 26 28 27 25 27 26 24 26 25 23 26 28 30 34 32 28 29 30 32 34 34 35 38 39 40 40 40 42 40
30 36 45 48 47 51 53 52 51 49 51 53 51 50 50 49 47 43 38 35 32 29 27 24 23 23 22 22 24 25 25 25 26 26 27 29 31 30 29 29 25 25 27 26 25 27 29 32 30 26 28 28 29 33 34 34 37 40 41 40 38 39 40
22 29 40 45 45 48 51 51 51 50 49 52 52 51 51 50 50 48 44 38 35 32 30 29 27 24 22 22 23 24 25 25 26 27 27 28 31 32 31 29 27 25 26 27 28 27 27 27 27 26 27 27 29 33 35 33 33 36 37 37 35 35 38
17 22 30 38 41 45 49 50 51 51 50 50 52 53 52 51 50 50 48 43 37 33 32 30 28 25 22 22 22 23 24 25 25 26 28 28 29 31 31 28 26 25 26 28 28 28 26 24 24 25 26 27 30 34 35 33 30 31 32 32 33 31 31
15 19 24 31 38 44 49 51 50 50 49 49 50 52 52 51 51 50 50 47 41 35 31 29 29 27 22 21 22 22 23 24 25 25 26 28 28 29 29 27 25 24 26 27 27 28 28 24 22 25 26 28 31 32 34 32 28 28 30 29 29 28 27
15 19 22 28 36 42 46 50 51 50 49 48 49 51 52 51 51 51 51 51 46 39 33 30 29 27 23 21 21 22 22 23 25 24 24 27 29 29 29 28 27 25 25 27 27 28 28 25 23 24 24 27 31 29 30 30 25 24 27 26 25 26 27
16 19 21 25 34 40 44 48 52 51 49 48 48 51 53 51 50 51 52 52 50 43 37 33 31 30 26 22 21 21 23 23 24 26 26 28 30 30 30 30 30 28 26 26 27 29 29 27 26 25 22 23 27 26 25 25 23 20 23 24 23 23 24
17 20 22 24 32 40 43 47 51 50 48 49 49 50 52 51 51 51 50 51 51 47 41 36 33 32 31 27 24 23 22 22 25 27 27 28 29 29 30 30 30 31 29 27 26 29 31 29 28 27 23 20 23 23 21 21 20 19 20 23 23 21 21
19 21 22 23 30 40 44 46 49 49 48 49 49 49 52 53 51 51 50 51 51 49 45 40 34 33 34 33 30 27 24 23 24 26 26 26 28 28 28 29 29 31 31 29 27 27 28 28 28 27 24 20 20 20 20 19 18 18 20 23 24 22 20
25 26 27 27 31 40 44 44 45 47 49 49 48 48 51 53 53 51 50 51 51 50 48 44 39 36 36 35 33 30 27 25 24 25 26 26 27 27 27 27 28 29 30 30 29 27 25 26 28 26 22 19 19 18 18 18 18 18 18 20 23 24 23
27 28 31 31 33 40 46 46 45 46 48 49 48 47 48 51 52 51 52 52 51 51 50 47 43 39 38 38 36 32 29 27 25 24 26 27 26 26 26 26 26 27 30 31 30 28 25 24 27 27 22 18 18 18 18 17 17 18 17 16 19 23 26
31 31 30 30 34 40 44 47 46 45 46 47 47 46 45 47 50 51 52 52 51 50 50 49 45 41 41 41 38 34 31 29 28 26 25 27 26 26 26 26 24 25 28 29 30 29 26 24 27 28 25 20 17 17 17 17 17 16 16 15 15 19 24
37 37 35 36 41 43 43 44 42 42 44 45 45 45 44 44 47 50 52 52 51 50 48 49 47 44 42 41 39 37 34 32 31 28 26 26 26 25 25 26 25 24 25 27 29 29 26 25 26 28 27 23 19 17 16 17 16 15 14 14 14 16 21
36 38 38 38 42 46 46 45 42 41 43 44 44 44 42 42 46 48 51 52 52 51 48 48 48 46 43 42 41 40 38 34 32 30 27 25 25 25 24 25 26 25 24 25 27 27 25 24 24 26 27 26 23 19 17 16 16 15 13 12 14 15 18
34 36 37 35 37 44 48 47 44 43 43 44 44 42 40 41 45 47 48 50 51 51 49 48 48 48 46 45 44 43 39 35 33 30 27 25 23 22 22 25 26 26 25 26 27 26 23 23 23 24 26 27 26 24 21 18 17 15 13 11 12 14 17
37 36 37 37 37 42 47 47 46 44 44 44 43 41 38 38 42 45 47 48 50 51 50 49 49 49 49 48 47 45 41 37 34 31 29 26 23 20 21 23 25 26 26 27 28 26 22 19 20 22 23 24 26 26 24 22 20 16 13 11 11 13 16
37 37 38 40 40 42 45 49 49 46 45 43 41 40 39 37 39 43 46 47 50 51 51 51 50 50 50 50 50 48 45 41 38 34 30 28 24 21 20 20 22 24 26 27 27 24 20 18 19 20 19 21 24 26 25 24 22 18 13 11 11 13 16
35 36 37 39 41 43 45 48 48 48 46 44 41 39 37 37 37 40 42 44 46 49 50 51 51 52 51 51 52 52 50 46 43 38 35 31 27 23 20 19 20 21 24 27 27 24 19 18 20 20 18 18 21 25 25 24 23 21 17 13 11 12 14
34 35 35 36 40 44 46 46 47 47 46 44 42 38 35 35 36 38 40 40 43 46 49 49 51 52 52 52 53 54 53 50 47 44 39 34 29 25 21 19 19 19 22 25 26 26 22 19 20 22 19 17 18 21 23 23 22 21 18 14 11 11 13
36 35 35 36 39 41 42 44 45 45 43 40 40 39 36 35 35 36 38 38 40 43 46 47 48 50 52 54 55 55 56 54 50 47 43 38 31 28 25 22 20 19 20 22 24 26 25 21 21 22 21 18 17 17 20 21 20 18 16 13 11 11 12
37 36 36 37 38 38 38 39 41 43 41 37 36 37 37 37 36 37 37 37 39 41 44 46 47 48 52 55 56 57 56 55 52 49 46 41 34 29 27 25 24 21 19 20 22 24 26 24 23 23 23 21 18 15 16 19 19 16 13 12 11 11 12
38 38 38 37 39 39 38 38 38 40 38 35 33 33 35 36 37 37 37 37 39 41 44 46 45 47 51 54 57 58 57 55 53 50 48 44 38 33 29 27 27 26 22 20 21 23 25 26 25 25 24 23 22 18 15 17 19 17 14 13 12 12 13
38 38 37 37 37 38 38 39 38 37 36 32 30 30 31 33 36 37 36 37 39 42 44 45 45 47 50 54 57 58 56 53 51 49 49 47 43 38 33 29 29 30 27 23 21 23 26 27 26 26 25 24 24 22 18 16 18 17 15 14 13 13 15
39 39 38 38 38 37 38 38 37 34 33 30 28 27 26 29 32 34 34 34 37 40 43 44 45 47 50 53 56 56 54 51 48 48 49 49 46 42 36 31 29 30 29 26 25 25 26 26 25 25 26 25 23 23 22 20 18 17 16 15 14 14 17
40 39 38 37 37 36 36 36 33 30 30 28 26 24 24 26 28 30 31 31 34 40 43 43 45 47 49 52 54 54 54 52 48 48 50 50 48 43 36 31 30 30 30 30 30 28 27 26 25 24 26 26 24 23 24 23 21 20 18 16 16 17 20
40 40 39 38 36 35 35 34 31 29 29 26 24 23 23 24 25 26 28 28 31 38 42 43 45 47 49 51 53 53 53 52 48 48 50 50 48 42 34 30 30 30 30 31 31 29 28 28 27 25 25 27 26 25 25 25 24 23 21 19 19 20 23
42 41 40 39 37 36 36 34 32 31 30 27 24 22 22 23 23 24 25 26 30 36 41 43 45 48 49 50 51 52 54 52 47 44 45 45 42 37 33 30 30 31 30 28 28 28 29 29 28 27 26 25 25 26 26 26 26 25 24 23 24 25 26
43 42 41 40 38 37 38 35 32 33 35 33 28 23 22 22 22 23 24 26 28 33 38 42 45 48 49 50 50 53 53 49 44 42 43 42 37 32 28 27 27 28 27 24 24 26 28 28 28 28 26 24 24 25 25 26 27 26 26 28 29 29 29
44 43 41 40 39 40 40 37 35 36 39 40 35 29 27 26 26 24 24 26 28 30 34 40 45 49 51 51 51 52 49 46 47 49 48 44 37 31 26 24 23 24 24 24 27 27 28 28 28 27 27 26 25 26 26 27 30 31 32 33 33 33 33
48 44 44 44 43 42 41 41 43 44 44 45 43 37 33 31 31 31 28 27 28 29 33 40 45 50 52 52 52 51 47 48 52 52 48 44 40 36 33 30 30 30 29 30 31 31 30 31 31 31 31 30 30 30 30 32 35 39 40 39 38 38 38
55 52 52 50 48 46 43 46 52 52 50 50 49 43 38 36 39 42 39 32 30 30 33 40 46 50 53 54 51 48 48 51 53 50 45 43 42 40 40 39 38 37 36 36 36 35 34 34 34 33 34 33 33 35 36 37 40 43 44 43 43 44 44
61 62 61 56 54 54 49 48 55 57 54 52 52 48 44 41 42 46 46 41 37 35 35 40 46 50 53 53 50 48 50 52 51 47 45 44 43 41 41 41 41 40 40 41 40 39 38 38 37 37 36 36 38 40 43 44 43 44 46 46 47 50 50
63 63 64 59 59 63 59 54 56 59 57 56 55 53 50 46 44 46 49 48 45 41 38 40 46 50 52 52 49 48 50 51 48 46 45 44 43 42 41 41 42 41 41 42 41 41 41 41 41 42 42 42 44 45 47 49 48 48 49 50 51 53 54
63 63 65 62 63 68 67 62 61 61 59 58 57 56 56 53 50 51 52 50 49 47 44 43 47 49 49 48 45 46 50 51 47 46 46 46 46 45 43 42 42 42 42 42 42 42 44 44 45 48 48 49 50 50 51 52 53 52 53 53 53 55 56
65 65 65 64 63 68 70 68 67 64 61 59 58 58 58 56 53 54 54 52 52 52 50 48 48 47 45 45 45 46 50 51 50 50 51 50 48 47 44 43 42 41 41 42 44 45 47 48 49 51 53 53 53 53 54 55 55 55 56 57 58 59 60

ECMWFFLT1_prec_cthk_063.txt.gz
RH
48 47 48 51 51 52 52 53 56 56 54 54 53 50 49 46 42 38 36 35 36 35 35 34 31 27 22 19 17 15 16 16 17 17 17 18 19 20 21 21 22 21 20 20 21 22 23 24 25 27 28 28 29 30 29 29 29 29 32 36 37 35 34
44 44 45 48 49 50 51 52 54 56 54 54 53 51 50 48 44 39 36 35 35 35 34 33 32 29 24 21 20 17 15 15 16 16 16 16 17 18 19 19 19 19 19 19 19 20 22 23 24 25 26 28 29 29 29 30 30 29 28 30 32 32 32
40 41 43 45 47 48 49 51 53 54 55 54 54 52 51 49 45 40 36 35 35 35 35 34 32 30 28 24 21 19 17 15 14 15 15 16 16 17 17 17 18 18 17 18 19 20 20 22 24 25 25 27 28 28 28 29 30 31 29 27 28 29 30
34 37 42 45 45 46 47 49 51 52 53 55 55 53 53 50 46 41 37 35 34 35 34 34 33 32 31 28 24 21 19 17 15 14 14 14 15 16 16 16 16 16 17 17 18 19 20 20 22 24 25 26 29 29 28 28 29 30 30 30 29 29 30
31 34 40 43 42 42 43 46 50 51 52 54 56 56 54 52 48 44 39 34 33 33 34 35 34 33 32 30 27 23 21 19 17 16 14 13 13 14 15 15 15 15 15 16 16 18 20 21 21 22 23 25 28 31 29 27 28 28 29 31 33 33 31
32 33 35 37 39 39 39 41 45 48 51 55 57 57 55 53 50 46 41 35 32 31 33 35 35 34 32 31 29 25 23 21 19 18 17 15 13 13 14 14 14 15 15 15 16 17 19 21 22 21 21 22 24 28 30 29 28 28 29 31 33 33 32
33 32 33 36 37 36 35 38 41 44 49 54 57 58 57 55 53 50 44 39 34 31 31 32 33 32 32 31 30 28 25 22 20 19 18 17 16 15 14 14 14 15 15 15 15 17 19 21 21 21 21 21 21 24 27 28 28 28 30 31 31 31 31
34 32 34 35 34 33 36 40 41 42 45 52 56 57 57 56 54 52 48 45 41 36 31 30 30 30 29 30 30 28 26 24 22 20 19 18 18 17 15 15 14 14 14 15 15 16 18 20 20 21 22 22 21 21 24 25 27 28 29 28 29 28 29
33 32 32 32 33 35 38 40 42 43 45 49 53 54 56 57 55 52 51 49 47 42 36 33 31 29 28 28 29 28 27 26 23 21 20 19 19 18 18 17 16 15 15 15 16 16 18 19 19 19 21 22 21 21 22 23 24 25 26 25 24 24 25
39 31 28 31 35 36 37 38 40 43 46 48 50 52 55 57 56 54 52 51 50 48 42 38 35 31 28 27 28 28 28 27 25 22 21 20 19 18 19 19 18 17 17 17 17 17 18 19 19 19 20 20 20 20 21 22 22 23 23 22 22 22 22
44 35 27 28 34 35 36 38 38 39 42 45 49 51 54 56 56 55 53 51 52 51 48 43 38 32 28 27 28 29 30 28 27 24 21 20 19 19 20 20 20 20 19 18 19 18 18 20 19 19 19 19 18 17 18 19 21 22 22 21 20 20 20
43 45 36 28 27 28 31 35 38 37 38 43 50 52 52 54 57 56 54 52 52 52 51 48 42 36 31 29 28 29 30 29 27 25 21 19 19 19 20 21 21 21 21 20 20 20 20 20 20 19 18 18 17 16 16 16 17 20 21 21 19 18 18
39 45 44 38 32 30 29 30 33 35 35 40 49 52 50 52 55 56 55 54 53 53 52 51 48 42 35 33 30 29 29 29 27 25 21 19 18 18 20 21 21 21 22 21 21 22 22 21 21 21 19 18 17 16 15 15 15 17 19 19 17 16 16
42 43 50 53 50 44 40 36 32 32 34 38 45 50 49 49 54 56 55 55 55 55 53 52 51 47 43 38 34 31 29 28 27 25 23 20 19 18 18 19 20 21 22 22 22 23 23 21 21 21 20 18 17 16 16 16 16 16 17 17 16 15 15
49 47 51 55 54 51 50 48 44 42 41 41 45 49 48 48 53 57 57 57 57 57 56 55 54 51 48 45 40 35 31 30 28 27 25 23 20 19 18 18 19 21 21 22 23 23 23 23 22 23 22 19 18 18 18 18 17 16 16 17 16 16 15
55 52 50 52 56 57 53 51 52 52 51 48 48 51 52 50 53 57 59 61 62 62 60 59 58 55 52 49 45 41 37 34 31 29 27 25 22 20 19 19 19 21 21 22 22 22 23 24 24 24 23 21 19 19 19 20 19 18 17 17 17 17 16
59 57 52 52 58 60 57 56 57 57 58 56 53 52 51 49 52 55 57 59 64 66 67 65 62 59 56 55 52 47 44 41 37 33 30 27 23 21 20 19 20 20 21 21 22 23 23 24 25 25 25 23 21 20 20 20 20 19 17 16 17 18 17
61 59 55 54 57 60 62 66 66 66 65 64 60 58 54 50 51 54 54 54 56 61 68 70 69 66 62 60 57 53 50 47 43 40 36 32 28 24 21 21 20 21 21 22 22 23 24 24 25 24 25 25 24 22 20 20 19 18 17 16 16 17 17
62 59 56 56 57 58 60 63 66 69 71 68 65 64 60 55 53 53 56 58 57 56 60 66 71 73 71 66 61 58 55 52 48 44 41 37 34 29 25 23 22 22 22 22 22 23 24 24 24 25 25 26 26 24 22 20 19 18 18 16 15 16 17
66 63 59 55 53 54 56 59 62 63 62 64 66 65 62 60 57 55 59 64 64 59 56 57 62 68 72 70 65 61 58 55 51 47 44 41 38 34 29 27 25 24 24 23 23 23 23 23 23 24 25 25 26 26 24 21 19 18 18 16 15 15 16
69 68 64 59 55 53 52 56 60 56 51 56 64 66 64 62 60 60 63 65 63 60 59 58 58 60 63 64 62 60 58 56 54 51 46 43 41 38 34 31 29 28 26 26 25 24 23 23 23 23 24 25 26 26 26 23 21 19 18 17 16 16 16
69 69 68 65 61 58 55 55 58 57 55 59 63 65 66 65 63 65 67 65 60 60 63 63 60 59 59 56 56 56 55 54 55 53 49 46 43 40 38 36 33 32 31 28 27 25 24 24 24 23 23 24 25 26 26 25 23 21 19 17 17 17 18
68 68 67 66 63 60 59 57 56 57 59 59 57 58 63 67 67 70 71 69 65 64 65 64 61 59 58 56 55 54 52 51 53 53 51 49 46 43 41 39 37 36 35 33 30 28 25 24 24 24 23 23 23 24 25 25 25 23 21 18 18 18 20
69 68 67 66 64 60 57 55 54 54 54 53 51 52 56 61 66 71 73 71 68 65 63 61 58 57 56 55 55 53 51 50 51 52 52 50 48 47 45 43 40 38 37 37 34 30 27 25 25 24 23 22 22 22 23 24 24 24 23 20 19 20 20
70 68 67 66 66 63 59 56 54 55 55 53 51 49 48 51 60 69 71 68 65 62 57 53 53 53 53 54 54 54 52 51 51 51 51 50 49 48 48 47 45 42 40 39 38 36 32 29 26 24 24 23 22 21 21 22 23 23 24 23 21 21 20
67 67 66 67 66 64 62 59 56 56 57 57 53 47 44 46 53 61 64 60 56 54 49 47 49 51 54 56 55 55 53 51 49 49 49 49 50 50 50 50 49 47 45 42 41 39 38 35 31 27 25 24 23 22 21 21 22 23 24 23 23 22 21
64 63 62 64 65 64 61 58 56 55 54 53 51 47 44 43 45 50 52 52 52 48 46 48 52 54 55 55 55 55 53 50 47 47 48 49 50 50 50 51 51 51 49 47 44 43 41 39 36 33 29 26 24 24 23 21 21 21 22 23 23 22 22
62 59 60 61 62 64 63 59 56 53 50 49 49 46 44 42 41 42 44 47 49 49 49 51 53 54 54 53 52 53 53 48 46 46 47 48 49 49 50 50 51 52 52 50 48 46 44 41 39 37 35 31 28 26 25 23 21 20 20 21 21 21 21
58 58 60 60 61 63 65 62 58 53 49 46 46 44 43 43 40 37 38 40 43 48 52 53 52 51 50 50 49 50 50 47 44 44 45 46 48 48 50 51 52 52 52 51 50 48 46 44 41 40 39 37 33 29 27 25 22 21 20 19 19 19 19
55 56 58 59 60 61 63 62 60 56 50 47 44 43 41 42 41 39 36 35 37 44 49 50 49 48 46 42 41 43 45 45 43 42 43 45 46 47 48 50 50 50 51 51 51 49 48 45 44 42 42 41 39 35 30 27 24 21 20 19 19 18 17
54 57 60 62 61 59 59 59 58 57 53 48 45 43 39 39 41 40 37 34 35 40 44 46 46 45 42 38 35 34 37 39 38 39 41 43 45 46 46 48 49 49 49 50 50 49 47 46 45 44 43 42 41 38 33 29 26 23 21 20 20 19 18
53 57 63 64 60 56 54 52 52 52 50 47 45 44 40 38 39 38 36 35 36 39 41 42 42 40 38 36 33 31 32 33 34 35 37 40 42 44 45 46 48 48 49 51 51 49 46 46 46 46 45 44 41 38 34 31 29 27 24 22 21 21 20
51 55 62 64 58 52 50 48 47 47 46 44 44 43 39 37 37 37 36 35 35 37 39 41 41 38 35 34 33 31 30 30 31 32 34 37 41 43 45 45 47 49 51 51 51 49 46 45 46 47 48 45 41 35 32 30 30 29 27 25 23 22 22
50 50 58 63 58 51 48 45 44 44 44 44 45 43 39 36 36 36 36 36 35 36 38 38 38 37 35 34 33 32 29 29 30 31 32 34 38 41 44 46 47 50 50 50 51 50 47 46 46 49 50 47 41 33 30 30 31 30 27 25 23 21 22
48 45 52 61 58 50 47 45 44 46 47 46 46 45 41 38 35 35 35 35 35 35 36 36 34 33 33 32 32 32 31 30 30 31 32 33 35 38 42 45 47 50 52 52 52 51 50 49 50 52 53 49 39 32 30 30 29 26 24 21 19 18 19
48 44 48 56 55 48 47 49 48 48 48 47 47 46 43 41 38 37 38 38 36 35 35 34 32 30 29 30 31 31 31 32 33 34 34 34 34 36 39 42 45 50 53 52 51 51 52 54 55 56 55 47 37 31 29 27 26 24 21 19 17 18 18
49 45 46 53 53 48 49 53 50 46 46 46 46 45 43 42 41 40 40 41 39 35 34 35 34 30 28 28 30 30 32 34 37 39 38 38 38 38 38 41 45 50 52 50 50 51 55 58 59 57 52 44 36 33 30 28 27 26 21 17 18 19 20
51 46 44 50 53 51 53 55 52 48 46 47 46 44 41 41 41 40 40 42 41 38 37 39 38 35 34 34 35 37 41 44 48 51 52 50 48 46 42 40 43 48 51 50 49 52 57 60 60 54 46 40 35 32 29 27 26 24 21 19 21 23 24

ECMWFFLT1_prec_cthk_069.txt.gz
RH
53 56 58 59 60 61 62 64 65 64 62 60 58 56 53 50 45 39 34 30 29 29 28 26 26 26 25 23 21 22 23 22 22 23 25 26 26 26 27 28 29 29 28 27 24 25 27 28 29 30 30 29 29 28 29 30 30 31 32 33 33 34 35
51 53 55 56 57 58 59 62 64 64 63 62 60 58 55 51 47 42 36 32 30 30 30 28 27 26 25 23 21 21 22 22 21 21 23 25 25 25 25 26 27 26 26 26 25 24 25 27 27 28 29 29 29 28 28 28 28 30 31 32 32 33 34
43 48 51 52 53 55 58 61 62 63 63 62 60 59 56 52 49 44 38 34 31 30 31 30 28 27 25 24 22 20 20 21 21 21 21 22 23 24 24 25 25 25 25 25 26 24 24 25 26 26 28 28 29 29 29 28 28 28 30 31 31 31 32
36 45 49 51 52 54 57 60 61 61 62 62 60 59 58 55 52 48 42 36 33 31 31 31 30 28 27 26 24 20 19 20 21 21 20 21 21 22 23 24 24 24 24 23 24 24 23 23 24 25 26 28 28 29 29 29 28 27 28 30 30 31 32
34 45 51 51 51 52 54 58 59 59 59 60 61 61 60 58 55 51 46 40 35 33 32 32 32 31 29 27 25 23 20 19 19 20 20 20 21 21 21 22 22 24 24 23 22 22 22 22 23 23 24 25 27 28 29 29 30 29 28 29 29 31 33
30 39 46 47 47 49 52 55 56 56 57 58 61 62 61 61 59 54 50 43 38 35 33 33 33 32 30 29 28 25 22 20 19 19 20 20 20 20 20 19 20 22 23 22 22 21 21 21 22 22 23 24 25 27 28 28 29 30 30 30 30 31 32
26 30 35 40 44 47 49 53 54 55 56 57 60 64 64 63 62 59 54 48 40 37 35 34 34 33 32 31 29 28 25 22 20 20 19 19 20 20 20 19 18 19 21 22 22 21 21 21 21 21 23 23 24 25 27 27 27 29 31 33 33 31 31
26 27 29 34 41 45 48 51 54 54 55 57 58 62 63 64 64 61 57 52 44 39 37 35 35 34 34 33 31 30 28 26 23 22 21 19 19 19 20 20 18 18 19 20 20 21 21 20 20 21 22 22 23 24 25 27 28 28 30 33 35 34 32
29 29 31 34 41 48 51 53 55 55 54 55 57 59 62 64 64 62 59 55 48 41 38 38 37 36 36 35 32 31 30 30 27 25 23 21 19 18 19 19 20 19 18 17 18 19 20 20 20 20 21 22 23 23 24 25 27 28 29 31 33 34 33
34 34 35 39 45 50 54 56 61 61 56 53 56 58 60 62 64 63 61 58 52 44 40 40 39 38 37 35 34 33 31 31 31 29 26 23 20 19 18 18 19 20 19 17 17 17 18 19 18 19 19 20 21 22 22 23 25 27 30 30 31 32 33
38 39 42 47 50 52 54 56 62 66 62 57 57 58 60 63 65 66 63 61 58 51 46 42 41 40 39 36 35 35 33 32 31 31 29 25 21 19 17 17 17 19 19 18 18 17 16 17 17 17 17 18 18 19 21 22 23 25 28 30 30 30 32
45 47 51 54 55 56 57 57 58 64 65 59 57 58 60 65 69 70 68 66 64 60 55 49 44 41 40 38 36 34 34 33 31 30 29 28 25 21 18 17 16 17 17 18 18 17 16 16 16 16 16 15 16 16 18 20 21 22 25 28 29 28 31
54 56 59 58 57 57 59 58 58 61 64 61 56 55 58 63 70 74 73 72 70 67 64 58 51 45 42 40 38 35 34 33 31 30 29 29 29 27 23 20 17 16 16 16 17 16 16 15 15 14 14 14 14 14 15 17 19 20 22 25 27 27 28
56 61 64 61 60 59 59 59 59 61 65 63 59 57 57 60 67 72 73 73 73 70 69 66 60 53 47 43 40 37 35 34 33 32 31 30 31 31 29 26 22 20 17 16 16 16 16 16 15 14 14 14 14 14 14 15 17 18 19 22 25 26 27
56 61 65 65 65 64 61 60 60 62 66 66 62 60 58 60 65 69 71 71 72 71 70 71 69 64 58 51 46 42 39 37 36 35 34 33 32 32 32 31 28 26 23 21 19 17 17 17 16 15 15 14 14 14 14 14 15 17 17 20 23 25 25
57 61 65 66 67 66 64 61 59 61 66 68 66 63 60 60 65 70 72 73 75 74 71 71 73 74 70 62 55 51 46 42 38 36 35 34 32 31 30 31 31 30 29 26 24 22 20 19 19 18 16 15 15 14 15 15 15 16 17 18 21 22 23
58 62 64 65 67 67 65 62 61 62 64 68 69 66 63 63 66 70 73 75 76 76 73 69 69 73 73 69 65 61 56 49 43 40 38 37 36 34 32 32 31 31 31 30 29 27 25 23 22 20 19 18 17 16 16 15 15 16 17 18 19 21 22
64 64 64 63 64 67 66 63 63 64 65 67 69 67 65 66 67 69 73 75 75 75 75 72 69 68 67 68 71 70 65 57 51 46 43 41 40 39 36 35 33 32 32 32 31 30 29 27 25 23 22 21 20 18 17 17 17 17 18 19 19 20 21
70 67 65 63 62 65 67 65 65 66 66 66 67 67 66 67 69 71 73 76 77 76 75 76 76 75 68 64 66 68 67 64 60 53 49 46 42 41 40 38 36 34 32 32 32 32 32 31 29 27 25 23 22 20 19 18 18 19 19 20 20 20 21
74 70 68 65 63 64 67 67 66 68 69 67 65 64 64 66 70 72 73 76 78 78 77 76 77 79 76 68 62 59 59 62 63 59 54 50 45 42 41 39 37 36 35 33 33 33 33 32 32 30 28 26 24 22 21 19 19 20 20 21 21 21 21
74 73 71 68 66 66 68 68 66 65 66 67 66 63 62 64 69 72 74 76 78 78 81 80 78 77 77 73 66 60 55 54 55 55 56 55 50 44 41 39 38 36 35 35 34 33 33 33 33 32 30 28 26 24 22 20 19 20 21 21 22 22 23
72 73 74 72 70 69 68 69 68 65 62 64 68 67 65 64 65 67 70 72 74 77 81 82 80 79 76 73 68 64 61 58 54 51 53 56 55 48 42 40 39 37 36 36 35 34 33 33 33 32 31 29 28 27 23 21 20 20 20 21 22 24 24
70 71 73 73 72 71 69 67 66 65 62 61 63 66 67 66 64 65 68 68 69 74 79 80 80 80 78 74 71 69 68 67 64 58 56 57 57 52 46 43 42 40 38 37 37 35 34 32 31 31 30 29 28 27 24 20 19 20 20 20 22 24 25
69 70 72 73 72 72 69 65 63 62 60 60 61 62 64 66 66 66 66 64 63 69 76 78 79 79 78 77 75 72 71 70 69 66 63 59 55 50 46 44 44 43 42 40 39 37 36 34 33 32 31 29 27 26 24 22 20 20 19 20 22 24 26
66 68 70 72 74 73 69 66 64 61 58 57 59 60 60 63 67 69 67 62 61 65 71 75 77 77 78 78 75 73 72 71 69 66 63 59 54 50 48 47 45 44 43 43 42 40 40 38 36 34 32 30 28 26 25 23 22 21 20 20 21 23 25
61 63 65 68 73 74 71 67 66 64 60 56 56 60 61 61 63 68 68 64 61 61 65 71 74 74 77 79 77 74 73 72 69 66 63 58 54 54 53 50 48 46 44 43 43 44 43 40 37 35 34 32 30 29 27 26 24 23 21 20 20 22 24
55 59 62 64 68 72 74 72 68 65 63 59 57 59 63 63 60 60 61 61 62 61 61 64 69 71 72 75 76 75 74 72 71 70 66 59 55 55 55 53 50 47 45 44 45 46 46 42 38 37 36 34 33 31 29 28 27 24 23 21 20 21 23
54 56 59 61 62 65 70 74 72 66 63 62 60 59 61 63 61 57 55 58 63 64 63 65 68 69 68 69 73 76 76 74 72 73 72 66 59 56 56 55 52 49 47 47 48 48 48 44 42 40 38 37 36 34 32 30 29 27 25 23 21 21 23
54 56 57 60 60 60 63 70 72 69 63 60 60 59 59 62 63 59 55 57 62 64 64 68 69 67 67 68 70 74 76 76 75 74 74 72 66 60 58 57 54 51 49 48 49 50 50 48 45 44 42 41 40 38 36 34 32 30 28 25 24 23 23
50 53 56 58 59 59 60 63 66 68 65 61 60 59 58 59 61 60 56 58 62 63 62 65 65 64 65 69 72 73 75 77 77 73 74 76 73 66 63 61 57 54 52 50 49 50 50 49 48 47 46 45 44 42 40 38 36 34 32 29 27 26 24
45 48 52 56 57 58 59 60 60 64 66 65 61 59 58 57 56 56 55 56 60 62 62 61 61 62 65 68 70 72 74 74 74 73 73 76 75 69 65 65 62 59 56 55 53 52 51 50 49 48 48 47 46 45 44 43 41 39 37 35 33 30 28
43 43 48 52 54 55 57 58 57 59 62 64 62 60 60 59 56 54 54 54 56 59 61 58 57 59 63 63 65 70 73 71 69 71 73 75 74 68 64 64 64 62 61 61 59 57 55 53 52 51 49 49 50 50 49 47 45 44 42 41 39 37 35
43 41 43 47 49 52 53 55 55 56 58 61 63 63 61 59 58 56 54 53 53 55 56 54 53 54 56 56 59 66 70 68 67 69 72 74 72 67 66 66 65 63 62 62 62 61 59 58 57 55 54 53 55 56 55 51 48 48 47 45 44 43 41
45 41 41 43 45 47 49 51 53 54 55 57 60 63 63 60 59 57 55 55 55 54 53 51 50 52 53 53 54 58 61 64 67 68 70 71 71 70 69 69 65 61 61 61 62 62 62 61 59 57 56 56 59 61 59 54 52 52 51 50 49 49 48
44 41 40 42 43 43 45 48 49 51 54 54 55 60 62 63 61 58 55 56 57 57 55 51 49 51 54 54 54 55 56 60 65 66 65 67 68 69 68 67 63 59 57 58 60 62 62 60 58 56 56 57 59 59 57 53 52 53 54 53 53 54 53
41 41 40 42 44 43 43 46 48 49 51 51 52 54 56 59 63 62 60 59 59 59 58 54 50 52 55 54 53 54 54 56 60 61 60 61 61 62 62 62 61 59 57 57 60 61 61 59 57 56 57 58 56 55 53 50 50 53 54 52 53 55 55
39 39 39 41 43 43 43 44 46 47 48 49 50 51 50 52 59 65 66 64 61 59 58 56 53 54 54 53 51 52 54 55 56 55 54 56 56 57 57 56 57 57 58 60 60 59 58 57 56 56 57 55 53 53 52 50 51 53 53 52 53 55 57
37 37 38 38 40 42 43 43 43 45 46 47 47 50 50 48 51 60 66 66 64 61 57 54 54 55 54 52 50 49 51 54 54 51 49 51 55 57 56 57 57 56 56 57 58 58 57 56 56 56 55 53 53 54 53 52 54 55 54 54 54 54 56

ECMWFFLT1_prec_cthk_072.txt.gz
RH
63 64 62 61 64 67 69 71 69 65 62 60 60 58 54 49 43 38 35 33 32 31 30 28 25 23 22 23 25 26 25 24 25 27 28 28 27 26 27 29 32 32 31 30 28 28 29 31 32 33 33 33 33 34 34 34 35 35 36 38 38 37 37
57 61 62 60 61 63 66 70 69 67 64 63 63 61 57 53 48 43 37 34 32 31 31 30 28 25 22 22 23 25 26 24 22 23 26 28 27 25 24 26 29 30 30 30 29 27 27 28 30 32 32 33 33 33 33 34 35 35 35 36 37 36 36
52 56 59 60 61 62 65 68 68 67 66 64 64 63 60 56 53 49 43 37 34 33 32 31 29 28 26 24 22 23 25 26 23 22 23 26 26 25 24 24 26 28 29 30 29 27 27 26 27 29 31 32 32 32 33 33 34 34 34 35 36 36 36
49 52 56 59 61 62 64 66 67 67 66 65 64 64 63 60 57 54 49 43 38 34 32 31 31 30 29 27 25 23 23 24 24 22 21 23 25 25 24 24 25 26 28 29 29 28 27 27 26 26 28 29 31 31 32 32 32 33 34 34 34 35 35
46 48 52 55 57 58 60 64 66 65 66 66 66 65 65 63 61 56 52 47 42 39 35 33 32 31 31 30 29 26 23 22 22 22 22 21 23 24 24 24 24 25 26 27 28 28 28 27 26 26 26 27 29 30 30 31 32 32 33 33 33 34 35
43 41 46 50 53 54 58 62 65 66 67 68 68 69 67 65 63 60 55 50 46 43 39 35 33 31 32 31 31 30 27 23 22 21 22 22 22 22 23 24 24 23 24 25 27 27 27 27 26 26 26 26 26 27 28 28 29 31 32 33 33 34 35
39 36 40 47 50 54 58 63 67 69 69 69 70 72 70 67 65 63 59 56 51 47 42 37 35 33 32 33 32 32 30 27 24 22 21 22 21 21 21 22 23 23 23 24 25 27 27 27 26 26 26 26 25 26 26 26 26 28 29 32 34 35 36
40 36 40 47 48 51 58 64 71 73 73 72 72 73 72 71 69 66 63 61 57 51 45 40 38 36 34 33 33 33 32 31 29 25 22 21 21 21 21 21 21 21 22 23 24 25 25 26 26 26 26 26 26 26 26 26 25 25 26 28 32 35 37
40 35 42 51 48 49 55 61 70 75 75 75 74 74 75 75 74 71 68 66 63 56 49 44 41 40 37 36 34 34 34 33 31 29 26 23 21 20 20 21 21 20 20 21 22 23 24 25 25 26 26 26 25 25 26 26 26 26 26 27 29 33 35
37 34 42 53 51 50 55 57 64 70 72 74 75 75 76 77 78 77 74 71 68 62 56 49 45 43 41 39 37 35 34 33 33 32 30 27 24 21 19 20 20 20 20 20 20 21 22 23 24 25 26 26 26 25 25 25 26 26 26 27 29 31 32
36 34 41 52 53 52 57 60 62 65 67 70 72 74 76 78 80 79 77 74 70 67 63 55 49 46 44 42 41 38 36 34 33 33 32 30 28 24 21 20 19 20 19 19 19 19 19 21 23 24 25 25 25 25 24 24 24 25 26 26 28 29 30
42 39 41 49 53 54 59 63 63 65 66 68 70 71 74 77 79 79 78 75 71 69 66 59 52 48 46 45 44 42 39 36 34 32 32 32 32 30 27 24 22 20 20 19 19 18 18 18 20 21 22 23 24 25 24 23 23 24 25 26 27 27 28
50 48 45 46 50 53 58 62 65 68 69 70 70 71 73 75 77 77 79 77 73 71 67 62 55 50 48 48 47 46 43 40 36 34 33 33 34 34 32 30 28 25 22 21 19 18 18 18 18 19 20 21 21 22 22 22 23 22 24 25 26 26 26
54 53 50 47 47 50 55 58 63 69 73 74 73 72 72 74 74 75 77 78 76 74 71 67 61 54 52 51 50 49 46 44 42 39 37 36 35 36 36 35 32 30 28 26 23 20 18 18 17 17 18 18 19 19 20 20 20 21 22 23 25 26 25
60 56 53 51 49 49 51 53 56 64 73 77 77 75 73 73 74 74 75 77 77 75 73 71 67 61 55 53 51 50 49 48 47 44 41 39 36 35 36 36 36 34 32 29 27 24 21 20 18 17 17 17 17 17 18 18 18 18 19 21 23 25 25
63 61 59 56 53 51 50 50 52 57 64 71 77 78 76 75 75 75 76 76 76 75 73 72 69 63 58 52 50 49 50 50 49 46 43 41 38 36 35 36 37 36 34 31 29 28 26 24 22 20 18 18 17 17 17 16 16 16 17 17 19 22 24
63 65 63 59 56 54 51 50 52 56 59 64 70 75 78 77 76 76 76 76 77 76 75 74 70 66 61 55 50 49 50 51 50 48 45 41 38 37 36 36 36 36 36 34 32 31 29 28 27 25 23 21 20 19 17 16 16 15 15 16 16 19 22
65 64 65 61 58 57 55 53 54 57 59 61 64 67 71 76 76 75 75 76 78 79 78 76 73 70 66 61 56 51 49 49 49 49 47 43 38 35 34 34 35 36 35 35 35 34 32 31 30 28 28 26 25 22 20 18 16 16 16 16 16 17 19
72 68 65 62 59 58 58 59 59 59 59 61 63 62 63 68 73 75 75 75 78 80 81 80 78 76 73 70 66 60 53 48 46 44 45 46 43 40 36 33 32 33 34 34 35 35 35 33 32 31 30 30 28 26 24 21 19 18 17 17 17 17 19
74 74 71 66 62 61 60 61 62 63 62 62 64 62 61 62 66 71 74 75 76 78 79 80 81 80 77 75 74 71 64 58 51 45 44 46 47 47 45 40 35 32 31 32 34 35 35 34 34 33 32 31 30 29 27 24 21 20 19 19 19 19 19
70 76 77 73 68 64 62 61 62 61 60 62 64 64 62 60 62 67 70 72 75 74 73 76 80 81 78 76 76 75 72 69 62 53 47 47 47 49 50 48 44 38 34 33 33 34 35 36 36 35 34 34 32 31 30 26 23 21 20 20 19 20 20
63 68 74 77 74 71 68 65 63 61 58 58 62 64 62 58 57 61 65 69 73 75 74 76 81 82 80 79 78 76 76 77 71 62 56 53 50 48 48 48 48 46 42 39 35 34 34 36 36 36 35 35 34 34 32 28 25 23 21 20 20 20 21
60 58 63 70 73 74 73 69 67 65 60 57 59 62 61 57 54 55 60 66 70 74 77 79 81 84 83 82 80 78 79 81 79 72 66 62 55 50 49 48 46 47 48 46 42 38 36 35 35 34 34 34 34 34 34 30 28 26 23 21 21 21 21
59 56 57 63 67 71 73 72 69 68 65 62 61 61 61 61 57 53 55 63 68 72 76 77 78 82 83 82 82 82 81 82 80 76 72 68 61 56 54 51 46 44 47 47 44 41 39 37 36 34 33 33 32 32 33 32 30 29 26 23 22 22 22
55 54 55 57 61 65 68 71 70 69 68 67 65 63 62 62 61 57 57 62 67 71 73 73 74 77 78 79 81 84 83 81 78 76 73 71 66 60 58 55 50 46 46 45 43 42 41 40 38 35 33 32 31 30 31 31 31 31 28 25 23 23 22
51 51 51 52 55 58 62 67 70 69 68 68 68 68 66 62 61 61 61 60 61 64 68 69 70 72 74 76 79 83 83 81 79 77 75 72 69 65 63 60 56 53 50 46 42 42 43 42 39 35 32 31 30 30 28 28 30 31 30 27 24 23 22
48 49 49 48 50 52 55 60 66 69 68 68 69 70 70 67 63 63 64 61 56 57 60 64 67 68 70 74 79 82 82 81 79 77 75 74 72 70 68 66 63 61 57 51 46 43 43 43 39 35 33 32 30 29 28 27 28 30 31 29 26 24 24
46 45 45 44 44 46 48 52 58 64 67 68 69 70 72 71 67 65 67 66 61 56 55 59 63 64 67 74 79 80 79 78 80 80 79 78 78 76 73 70 68 66 63 57 52 47 43 42 39 36 34 32 31 29 28 27 27 29 31 31 29 27 26
46 42 42 41 40 40 41 44 50 58 64 67 68 69 70 71 70 68 69 69 66 60 56 57 58 58 63 70 75 75 74 74 78 85 86 84 81 78 76 75 72 68 64 58 53 49 46 43 40 38 35 33 32 30 29 28 28 29 30 31 31 30 28
47 43 39 39 38 37 36 37 41 48 57 63 66 68 69 69 69 69 69 69 68 65 60 56 53 52 54 60 65 69 70 72 79 88 89 83 81 80 78 76 73 69 64 58 54 52 49 46 43 40 37 34 33 32 30 29 29 30 31 32 32 32 30
47 45 41 38 37 36 35 34 34 38 46 55 62 66 68 68 67 68 69 69 68 68 65 59 53 49 49 53 56 59 63 69 79 88 88 82 81 81 79 78 75 70 65 62 59 56 53 52 50 46 41 38 36 34 33 33 32 33 33 33 34 33 32
44 44 42 38 36 35 35 34 33 34 37 43 52 60 66 68 67 66 68 69 68 68 66 62 57 52 50 51 53 53 54 60 68 76 80 81 81 82 81 80 77 72 66 63 61 59 57 56 55 52 47 44 41 39 38 38 37 37 37 36 36 35 34
41 39 37 36 35 35 34 33 32 33 33 35 41 49 60 67 68 67 68 69 68 67 65 62 60 58 54 51 51 51 51 53 55 58 63 70 76 80 82 80 78 74 69 63 59 57 57 56 57 56 52 48 45 44 44 44 42 41 40 39 39 39 39
37 34 31 30 31 34 34 33 31 31 31 32 33 39 49 58 65 68 69 69 69 68 67 64 62 63 60 53 50 51 52 52 52 52 54 58 65 72 78 81 80 76 70 62 57 57 56 55 57 57 54 51 49 48 47 46 44 42 42 42 43 44 44
35 33 30 29 29 31 33 33 32 30 30 29 31 34 40 48 57 64 69 69 68 67 69 67 65 65 64 57 52 54 56 55 54 53 54 56 59 62 68 75 78 73 66 60 60 60 57 54 54 53 53 52 50 50 48 45 43 45 47 47 46 47 48
34 33 32 31 30 29 30 32 33 32 30 28 30 33 36 41 47 55 63 68 68 67 70 70 67 67 65 59 56 57 59 58 58 57 56 57 57 58 62 68 72 72 67 65 64 63 58 54 52 52 53 53 51 51 50 48 49 52 52 49 48 50 52
36 34 31 31 31 30 29 30 32 34 33 30 30 33 36 37 40 47 55 62 66 68 70 68 66 66 66 64 62 61 59 60 63 63 60 57 57 58 60 62 66 68 66 66 66 64 60 57 55 55 56 56 55 55 54 54 57 58 55 53 53 56 58
38 37 34 33 32 32 32 31 32 35 37 34 32 33 35 35 36 40 47 54 59 65 68 67 65 66 66 64 63 62 61 63 66 67 64 61 59 59 60 61 62 63 63 64 66 66 62 60 59 58 57 57 58 59 58 59 61 60 59 58 60 61 62

ECMWFFLT1_prec_cthk_075.txt.gz
RH
55 58 61 64 67 72 75 75 73 69 64 60 58 57 54 48 42 39 37 35 34 32 30 28 26 27 27 26 26 26 25 28 32 33 33 32 31 32 33 34 36 37 36 36 35 34 33 34 34 34 34 34 34 34 35 36 36 36 37 38 39 40 39
53 56 58 60 63 67 72 74 74 70 67 63 61 60 58 53 46 41 38 36 34 34 32 29 27 25 26 26 25 25 24 25 28 32 33 32 29 29 30 31 32 33 34 34 33 32 31 31 31 32 32 33 33 33 34 34 35 35 36 37 38 39 40
54 54 56 58 60 64 69 73 73 71 68 65 64 64 62 58 52 45 41 38 36 34 32 31 28 26 25 26 25 25 24 23 24 27 31 32 30 27 27 28 29 30 32 33 32 31 30 29 29 30 30 31 32 33 33 34 34 34 35 35 36 37 39
56 56 56 58 60 62 66 71 74 73 71 68 67 68 68 65 59 53 47 42 39 36 34 32 30 28 26 25 25 24 24 24 23 24 27 29 30 28 26 26 26 27 29 31 31 31 30 29 28 28 28 29 31 32 33 34 34 34 34 34 35 35 37
56 58 59 59 60 62 64 69 74 76 75 73 71 71 71 71 67 61 55 49 44 40 37 34 32 30 28 26 25 25 25 24 24 23 23 25 28 29 28 26 25 25 27 28 30 31 30 29 28 27 28 28 29 30 31 33 33 34 34 34 34 34 35
55 58 61 61 61 62 64 68 71 74 75 76 75 74 73 71 69 67 63 57 51 45 42 37 33 31 30 29 27 26 26 25 24 24 23 23 25 27 28 27 25 24 25 26 28 30 30 30 28 27 27 27 28 29 29 31 32 33 34 34 34 33 33
55 58 60 60 60 61 63 65 66 69 72 74 75 75 74 72 71 71 70 66 59 53 47 42 38 33 31 30 30 28 28 27 25 25 25 24 24 24 26 27 26 25 25 25 27 28 29 29 29 27 26 26 27 28 28 28 29 30 31 32 33 34 34
56 58 58 58 58 58 58 60 61 63 67 71 73 74 75 74 75 75 76 74 70 62 55 49 44 39 34 32 32 31 30 29 28 26 25 25 24 24 24 25 26 25 26 26 26 26 27 27 28 28 27 26 26 27 27 27 27 28 28 29 29 31 33
56 57 57 58 59 58 57 57 59 60 64 68 71 73 73 73 75 77 77 77 74 70 66 59 52 46 42 36 33 33 32 32 30 29 27 26 25 24 24 24 24 25 25 25 26 25 25 26 26 27 27 26 26 26 26 26 26 26 26 27 28 29 30
57 58 58 58 58 61 60 58 59 62 64 67 68 71 73 73 73 75 75 75 74 73 72 68 60 52 47 42 37 35 34 33 32 31 29 28 26 25 25 25 24 24 24 24 24 24 24 24 25 25 26 25 25 25 25 26 26 26 25 25 27 28 30
59 61 60 55 51 57 62 63 64 64 66 69 69 70 72 73 72 72 73 73 74 76 75 72 67 58 51 47 43 40 37 35 34 33 31 30 29 27 27 26 25 24 24 23 23 23 23 23 23 24 24 24 24 24 24 25 25 26 26 25 25 26 28
63 66 65 57 49 51 58 64 67 68 70 73 74 73 73 74 74 73 73 72 73 76 75 73 69 64 59 54 49 45 42 40 38 35 33 32 31 30 29 28 27 26 25 24 22 22 21 21 22 22 22 23 23 23 23 24 24 25 25 25 25 25 26
66 68 68 63 56 53 55 62 68 71 73 76 79 80 77 76 76 75 74 72 71 73 73 70 66 63 62 58 54 50 47 45 42 39 37 35 33 32 32 30 29 28 27 25 24 22 21 20 20 20 21 21 22 22 22 22 23 23 23 23 24 25 26
65 68 67 65 63 58 55 59 66 70 72 74 79 84 83 78 76 76 77 76 74 73 72 70 65 61 58 56 54 53 51 48 46 44 42 40 37 35 33 32 31 29 29 28 26 25 23 21 20 19 19 19 20 21 21 21 21 21 21 21 22 23 24
61 65 66 65 63 59 54 56 63 68 69 69 72 79 85 84 80 78 78 79 78 77 75 73 69 65 60 56 52 52 53 52 49 47 46 45 42 38 35 34 33 32 31 30 29 28 26 25 23 21 20 19 18 18 19 19 20 20 20 19 20 20 22
55 60 63 62 60 57 54 54 60 67 69 67 66 72 78 81 83 82 80 79 80 79 78 77 74 70 66 61 56 52 52 53 52 49 47 46 44 41 38 36 35 34 33 31 31 30 30 28 27 25 23 21 19 18 17 17 17 17 18 18 18 19 20
51 55 58 60 60 58 55 54 57 64 68 67 65 66 70 74 79 83 83 81 80 80 80 79 77 75 71 67 63 58 53 52 52 51 49 47 46 43 40 38 36 35 35 34 33 32 31 31 30 28 26 24 21 19 18 16 16 16 16 16 16 17 17
52 53 55 59 61 61 59 56 55 59 64 66 63 62 64 67 72 78 82 82 81 80 81 81 80 79 77 73 68 63 57 53 52 52 51 50 48 46 43 41 39 37 36 35 34 34 33 32 31 30 30 28 25 23 19 16 15 16 16 15 15 15 15
55 55 55 56 60 64 65 63 60 58 58 60 60 59 60 62 66 72 77 80 81 81 81 84 84 82 80 77 72 67 62 56 52 51 51 51 50 49 48 46 44 41 38 37 36 36 35 34 33 32 32 31 29 27 23 20 17 16 15 15 15 15 15
56 57 56 54 56 60 64 66 66 62 57 55 55 55 57 60 65 71 73 76 80 81 81 84 86 84 81 79 77 73 67 62 56 52 51 50 50 50 49 49 47 45 44 42 39 37 36 35 35 34 34 33 31 30 28 25 22 19 18 17 16 16 16
54 56 55 55 55 56 58 62 66 66 61 56 53 51 50 53 60 69 73 73 75 77 79 81 82 83 84 83 82 79 73 69 64 59 55 53 51 50 49 47 46 46 46 46 45 42 39 37 36 35 35 34 33 32 31 29 27 25 23 21 20 20 20
53 53 53 53 55 55 56 59 63 66 65 61 57 54 50 48 52 60 68 73 73 72 74 77 77 80 84 86 86 85 81 77 74 69 64 61 57 53 50 47 47 47 47 47 47 47 44 41 39 37 35 35 34 33 32 31 30 29 27 25 25 26 27
51 51 50 50 51 54 57 60 62 64 65 63 61 60 56 50 48 50 58 68 71 69 69 72 73 76 79 81 84 86 84 83 81 77 72 68 63 57 53 50 49 48 48 48 47 47 46 44 42 40 38 36 35 34 33 31 31 30 30 29 29 30 30
50 49 48 48 48 49 53 58 61 63 64 63 63 63 61 57 52 50 52 59 64 66 67 69 70 72 75 77 80 82 83 83 83 82 78 74 69 64 59 57 55 53 51 50 48 46 45 45 44 43 41 39 37 35 33 31 30 30 30 30 31 32 32
49 48 46 45 47 47 47 50 55 58 60 63 64 63 63 61 59 56 55 56 58 60 62 64 67 70 73 75 76 77 81 83 83 83 83 79 76 72 69 67 64 60 55 53 52 50 47 46 44 42 41 39 37 35 33 31 30 30 29 29 29 31 31
48 48 46 45 45 47 47 47 47 49 51 56 61 64 65 64 62 61 60 60 60 59 56 57 62 66 70 73 74 73 75 79 80 81 83 83 81 78 77 76 73 68 61 58 57 56 52 50 47 43 40 38 37 35 33 30 29 29 29 29 29 29 30
44 45 45 45 44 45 47 47 46 46 45 46 50 56 62 66 65 63 63 64 65 63 57 54 57 59 62 67 71 71 70 71 73 73 77 83 86 84 83 82 79 74 68 64 63 61 58 56 53 47 41 38 37 36 33 31 29 28 28 29 29 29 29
43 42 42 43 43 43 44 46 46 47 46 45 43 44 50 58 64 66 65 65 66 67 62 56 54 55 54 54 59 66 69 70 70 71 74 81 85 85 84 83 81 78 74 71 68 65 62 60 57 51 45 42 40 38 35 32 30 28 27 27 28 28 28
42 41 40 41 41 41 41 42 44 45 45 46 44 42 42 46 53 62 67 66 66 67 66 61 55 54 54 50 48 55 64 67 69 72 74 75 79 82 81 81 81 82 81 77 72 66 62 61 60 55 51 48 45 42 39 35 30 27 26 26 27 27 27
37 37 37 37 38 39 39 40 41 42 43 43 43 43 43 41 43 50 61 67 67 66 66 65 59 55 55 52 48 50 56 60 64 69 70 69 70 74 76 78 82 85 84 82 77 69 64 63 63 60 57 53 49 45 43 38 31 26 25 26 26 26 26
32 32 33 34 34 34 35 37 39 40 41 41 42 42 42 42 42 43 49 60 67 68 67 65 62 58 56 55 53 51 52 54 56 61 67 68 65 64 66 73 84 88 85 81 78 74 69 68 69 68 64 59 52 47 43 39 32 27 26 27 27 27 27
28 28 30 31 32 32 31 32 34 36 38 39 40 40 40 41 42 42 42 48 58 67 70 68 64 61 58 57 56 55 53 52 50 52 58 63 64 62 63 69 80 88 87 83 80 79 76 75 75 74 68 61 55 49 45 40 33 29 28 28 27 28 28
26 26 27 28 31 32 31 29 29 30 32 34 36 38 38 37 39 40 40 42 47 57 67 71 70 67 63 60 59 57 55 55 53 50 50 53 56 60 64 69 77 86 90 87 84 84 82 80 79 76 69 61 56 53 51 45 38 33 32 32 31 30 30
27 26 25 25 27 30 32 32 29 27 27 27 30 33 34 34 35 37 38 39 41 47 57 65 69 70 69 66 62 58 56 56 55 52 51 50 49 50 55 62 71 80 86 86 85 86 85 83 81 77 70 64 60 58 56 50 43 39 38 38 39 39 39
28 27 26 25 26 26 28 31 31 29 27 24 24 27 29 31 32 34 36 37 38 42 49 56 61 66 70 70 67 63 59 57 55 53 53 53 49 45 46 51 59 68 75 78 80 83 85 84 81 76 72 68 65 64 60 51 44 44 44 45 46 48 49
27 27 26 26 26 27 27 27 28 28 27 25 23 23 25 28 29 32 34 36 37 39 44 49 53 58 64 69 70 68 64 61 57 54 52 53 52 46 44 47 51 56 62 66 70 75 79 81 78 75 73 70 65 64 62 54 49 51 52 51 51 53 55
31 31 31 29 30 30 31 30 30 28 25 24 24 23 23 25 27 30 32 34 36 37 40 43 47 50 55 62 68 70 69 65 61 57 53 54 55 51 46 45 47 49 53 59 65 71 75 76 76 73 73 70 64 61 60 56 55 57 56 53 53 53 55
35 35 35 34 34 35 35 34 35 33 28 24 24 23 23 23 25 27 30 31 33 35 37 39 41 42 45 52 60 68 73 70 66 62 57 56 56 54 49 46 46 46 48 52 59 67 70 71 72 72 72 69 64 61 60 58 57 58 57 55 55 55 55